Location: Asheville, NC
(35.6000°N, 82.5500°W)
Time: 10:18:58

ISS - Pass Details

Date: 17 March 2018
Orbit: 403 x 406 km, 51.6° (Epoch: 19 March)

Event Time Altitude Azimuth Distance (km) Brightness Sun altitude
Exits shadow 07:06:03 - 313° (NW) 2,159 -0.6 -7.3°
Reaches altitude 10° 07:07:45 10° 315° (NW) 1,457 -1.4 -7.0°
Maximum altitude 07:11:01 77° 41° (NE) 416 -3.7 -6.3°
Drops below altitude 10° 07:14:16 10° 128° (SE) 1,448 -0.2 -5.7°
Sets 07:16:20 0° 130° (SE) 2,303 0.8 -5.3°
